Weather History for Tarboro, NC

Change the Weather History Date:

Monday, March 18, 2013

  Actual Average Record
Temperature  
Mean Temperature 42 °F -  
Max Temperature 77 °F 63 °F 83 °F (1990)
Min Temperature 38 °F 35 °F 19 °F (1967)
Degree Days  
Heating Degree Days 22    
Moisture  
Dew Point 41 °F    
Average Humidity 92    
Maximum Humidity 95    
Minimum Humidity 82    
Precipitation  
Precipitation 0.01 in - - ()
Sea Level Pressure  
Sea Level Pressure 30.10 in    
Wind  
Wind Speed 6 mph (NNE)    
Max Wind Speed 10 mph    
Max Gust Speed -    
Visibility 5 miles    
Events Fog , Rain    
Averages and records for this station are not official NWS values.
T = Trace of Precipitation, MM = Missing Value Source: NWS Daily Summary

Daily Weather History Graph

Daily Weather History Graph

Search for Another Location

Airport:

Trip Planner

Search our weather history database for the weather conditions in past years. The results will help you decide how hot, cold, wet, or windy it might be!

Date:

Astronomy

Mar. 18, 2013 Rise Set
Actual Time 7:16 AM EDT 7:20 PM EDT
Civil Twilight 6:50 AM EDT 7:46 PM EDT
Nautical Twilight 6:21 AM EDT 8:15 PM EDT
Astronomical Twilight 5:50 AM EDT 8:46 PM EDT
Moon 11:24 AM EDT (3/18) 1:07 AM EDT (3/18)
Length of Visible Light 12h 55m
Length of Day
12h 04m
Waxing Crescent, 40% of the Moon is Illuminated
Mar 18
Waxing Crescent
Mar 19
First Quarter
Mar 27
Full
Apr 3
Last Quarter
Apr 10
New

Hourly Weather History & Observations

Time (EDT) Temp. Windchill Dew Point Humidity Pressure Visibility Wind Dir Wind Speed Gust Speed Precip Events Conditions
12:15 AM 40.8 °F 35.0 °F 35.8 °F 82% 30.21 in 3.0 mi ENE 9.2 mph - N/A   Haze
12:35 AM 40.1 °F 34.7 °F 36.9 °F 88% 30.21 in 2.0 mi NE 8.1 mph - N/A   Overcast
12:55 AM 39.7 °F 34.9 °F 37.4 °F 91% 30.21 in 2.5 mi NE 6.9 mph - N/A   Overcast
1:15 AM 39.7 °F 34.9 °F 37.4 °F 91% 30.20 in 2.0 mi NNE 6.9 mph - N/A   Overcast
1:35 AM 39.6 °F 34.0 °F 37.4 °F 92% 30.20 in 2.5 mi NE 8.1 mph - N/A   Overcast
1:55 AM 39.6 °F 35.4 °F 37.4 °F 92% 30.19 in 4.0 mi NE 5.8 mph - N/A   Overcast
2:15 AM 39.4 °F 34.5 °F 37.4 °F 93% 30.19 in 4.0 mi NE 6.9 mph - N/A   Overcast
2:35 AM 39.4 °F 34.5 °F 37.4 °F 93% 30.19 in 5.0 mi NE 6.9 mph - N/A   Overcast
2:55 AM 39.4 °F 33.2 °F 37.2 °F 92% 30.18 in 7.0 mi NE 9.2 mph - N/A   Overcast
3:15 AM 39.2 °F 33.6 °F 37.2 °F 93% 30.18 in 7.0 mi NE 8.1 mph - N/A   Overcast
3:35 AM 39.2 °F 33.6 °F 37.0 °F 92% 30.18 in 7.0 mi NE 8.1 mph - N/A   Overcast
3:55 AM 39.2 °F 32.5 °F 36.9 °F 91% 30.17 in 7.0 mi ENE 10.4 mph - N/A   Overcast
4:15 AM 39.2 °F 35.0 °F 36.7 °F 91% 30.16 in 3.0 mi NE 5.8 mph - N/A   Overcast
4:35 AM 39.2 °F 33.6 °F 36.9 °F 91% 30.17 in 3.0 mi NE 8.1 mph - N/A   Overcast
4:55 AM 39.2 °F 35.0 °F 37.0 °F 92% 30.17 in 3.0 mi NNE 5.8 mph - N/A   Overcast
5:15 AM 39.2 °F 35.0 °F 37.2 °F 93% 30.17 in 3.0 mi NE 5.8 mph - N/A   Overcast
5:35 AM 39.2 °F 35.0 °F 37.4 °F 93% 30.17 in 4.0 mi NE 5.8 mph - N/A   Overcast
5:55 AM 39.2 °F 35.0 °F 37.0 °F 92% 30.18 in 4.0 mi NNE 5.8 mph - N/A   Overcast
6:15 AM 39.0 °F 34.0 °F 37.0 °F 93% 30.18 in 5.0 mi NNE 6.9 mph - N/A   Overcast
6:35 AM 38.8 °F 34.6 °F 36.9 °F 93% 30.19 in 4.0 mi NNE 5.8 mph - N/A   Overcast
6:55 AM 38.8 °F 34.6 °F 37.0 °F 93% 30.20 in 4.0 mi NNE 5.8 mph - N/A   Overcast
7:15 AM 38.8 °F 34.6 °F 37.0 °F 93% 30.21 in 3.0 mi NNE 5.8 mph - N/A   Overcast
7:35 AM 39.2 °F 32.5 °F 37.4 °F 93% 30.19 in 3.0 mi NE 10.4 mph - N/A   Overcast
7:55 AM 39.2 °F 35.9 °F 37.4 °F 93% 30.21 in 3.0 mi NE 4.6 mph - N/A   Overcast
8:15 AM 39.4 °F 34.5 °F 37.6 °F 93% 30.21 in 4.0 mi NNE 6.9 mph - N/A   Overcast
8:35 AM 39.6 °F 35.4 °F 37.6 °F 93% 30.21 in 7.0 mi NNE 5.8 mph - N/A   Overcast
8:55 AM 39.7 °F 34.9 °F 37.8 °F 93% 30.21 in 10.0 mi NNE 6.9 mph - N/A   Overcast
9:15 AM 39.7 °F 35.6 °F 37.8 °F 93% 30.21 in 7.0 mi NE 5.8 mph - N/A   Overcast
9:35 AM 40.1 °F 34.1 °F 37.9 °F 92% 30.19 in 7.0 mi NE 9.2 mph - N/A   Overcast
9:55 AM 40.3 °F 35.5 °F 38.1 °F 92% 30.20 in 5.0 mi NE 6.9 mph - N/A   Overcast
10:15 AM 40.5 °F 35.1 °F 38.3 °F 92% 30.19 in 10.0 mi NE 8.1 mph - N/A   Overcast
10:35 AM 41.0 °F 35.8 °F 38.7 °F 91% 30.18 in 10.0 mi NE 8.1 mph - N/A   Overcast
10:55 AM 41.5 °F 36.4 °F 39.0 °F 91% 30.17 in 10.0 mi NE 8.1 mph - N/A   Overcast
11:15 AM 42.1 °F 36.1 °F 39.4 °F 90% 30.15 in 10.0 mi NE 10.4 mph - N/A   Overcast
11:35 AM 42.4 °F 38.1 °F 39.7 °F 90% 30.14 in 10.0 mi ENE 6.9 mph - N/A   Overcast
11:55 AM 43.2 °F 40.5 °F 40.3 °F 90% 30.14 in 10.0 mi ENE 4.6 mph - N/A   Overcast
12:15 PM 43.7 °F 40.3 °F 40.6 °F 89% 30.13 in 10.0 mi ENE 5.8 mph - N/A   Overcast
12:35 PM 44.4 °F 40.0 °F 41.4 °F 89% 30.11 in 10.0 mi East 8.1 mph - N/A   Overcast
12:55 PM 44.8 °F 41.0 °F 41.7 °F 89% 30.12 in 10.0 mi NE 6.9 mph - N/A   Overcast
1:15 PM 45.1 °F - 42.1 °F 89% 30.11 in 10.0 mi Calm Calm - N/A   Overcast
1:35 PM 45.3 °F 44.0 °F 42.3 °F 89% 30.10 in 10.0 mi East 3.5 mph - N/A   Overcast
1:55 PM 45.7 °F 44.4 °F 42.8 °F 90% 30.09 in 10.0 mi NE 3.5 mph - N/A   Overcast
2:15 PM 45.9 °F 44.6 °F 43.0 °F 90% 30.08 in 10.0 mi North 3.5 mph - N/A   Overcast
2:35 PM 45.5 °F 44.2 °F 43.0 °F 91% 30.07 in 10.0 mi North 3.5 mph - N/A   Overcast
2:55 PM 45.5 °F - 43.2 °F 92% 30.06 in 4.0 mi Calm Calm - N/A   Overcast
3:15 PM 45.5 °F 44.2 °F 43.3 °F 92% 30.04 in 2.5 mi North 3.5 mph - N/A   Overcast
3:35 PM 45.5 °F 44.2 °F 43.7 °F 93% 30.03 in 3.0 mi NNE 3.5 mph - N/A   Overcast
3:55 PM 45.9 °F 43.6 °F 43.9 °F 93% 30.02 in 3.0 mi North 4.6 mph - N/A   Overcast
4:15 PM 46.2 °F 45.0 °F 44.1 °F 92% 30.01 in 4.0 mi NNE 3.5 mph - N/A   Overcast
4:35 PM 46.2 °F 45.0 °F 44.1 °F 92% 30.00 in 4.0 mi ENE 3.5 mph - N/A   Overcast
4:55 PM 46.8 °F - 44.6 °F 92% 30.00 in 7.0 mi NE 3.5 mph - N/A   Overcast
5:15 PM 47.3 °F - 44.8 °F 91% 29.99 in 10.0 mi East 3.5 mph - N/A   Overcast
5:35 PM 47.3 °F - 44.8 °F 91% 30.00 in 10.0 mi Calm Calm - N/A   Overcast
5:55 PM 47.3 °F - 44.8 °F 91% 29.99 in 10.0 mi Calm Calm - N/A   Overcast
6:15 PM 47.3 °F - 45.0 °F 92% 29.99 in 10.0 mi Calm Calm - N/A   Overcast
6:35 PM 47.3 °F - 45.0 °F 92% 29.97 in 5.0 mi Calm Calm - N/A   Overcast
6:55 PM 47.3 °F - 45.1 °F 92% 29.98 in 4.0 mi NNW 3.5 mph - N/A   Overcast
7:15 PM 47.1 °F - 45.1 °F 93% 29.98 in 4.0 mi NNW 4.6 mph - N/A   Overcast
7:35 PM 46.8 °F - 45.0 °F 93% 29.98 in 2.5 mi NNW 5.8 mph - N/A   Overcast
7:55 PM 46.6 °F - 44.8 °F 93% 29.97 in 1.2 mi NW 4.6 mph - N/A   Overcast
8:15 PM 46.2 °F 43.3 °F 44.6 °F 94% 29.96 in 1.2 mi NNW 5.8 mph - N/A   Overcast
8:35 PM 45.9 °F 43.6 °F 44.6 °F 95% 29.95 in 0.8 mi NNE 4.6 mph - N/A   Overcast
8:55 PM 45.9 °F 44.6 °F 44.6 °F 95% 29.96 in 1.0 mi North 3.5 mph - N/A   Overcast
9:15 PM 45.5 °F 44.2 °F 44.1 °F 95% 29.95 in 0.5 mi North 3.5 mph - N/A Fog Fog
9:35 PM 45.5 °F 43.2 °F 43.9 °F 94% 29.96 in 0.8 mi North 4.6 mph - N/A   Overcast
9:55 PM 45.5 °F 44.2 °F 43.9 °F 94% 29.97 in 1.2 mi NW 3.5 mph - N/A   Overcast
10:15 PM 45.3 °F 44.0 °F 43.9 °F 95% 29.95 in 2.0 mi North 3.5 mph - N/A   Overcast
10:35 PM 45.1 °F 40.3 °F 43.7 °F 95% 29.97 in 2.5 mi WNW 9.2 mph - N/A   Overcast
10:55 PM 44.8 °F - 43.3 °F 95% 29.94 in 4.0 mi Calm Calm - N/A   Overcast
11:15 PM 44.8 °F - 43.3 °F 95% 29.92 in 3.0 mi Calm Calm - N/A Rain Light Rain
11:35 PM 44.8 °F - 43.3 °F 95% 29.90 in 2.5 mi Calm Calm - N/A Rain Light Rain
11:55 PM 44.8 °F - 43.3 °F 95% 29.90 in 3.0 mi Calm Calm - 0.01 in Rain Light Rain